www.pogodaiklimat.ru

Погода и климат >> Архив погоды >> Россия >> Иркутская область >> Карам


ПОГОДА в Караме

  • Прогноз погоды в Караме
  • Монитор погоды в Караме

АРХИВ ПОГОДЫ в Караме

Время (UTC), дата Ветер
(напр.,м/с)
 
Видим.   Явления Облачность Т
(С)
Тd
(С)
f
(%)
Тe
(С)
Тes
(С)
Комфортность P
(гПа)
Po
(гПа)
Тmin
(С)
Tmax
(С)
R
(мм)
R24
(мм)
S
(см)
09 12.02 штиль 0 50 км ясно -25.3 -30.1 64 -25 -25 1043.8 976.0
12 12.02 штиль 0
{2}
н/о 3/0
[Ci fib]
-28.2 -32.1 69 -28 -28 1044.6 976.0 -24.1
15 12.02 штиль 0 н/о ясно -31.6 -34.5 75 -32 -32 опасность
обморожения
1045.7 976.0
18 12.02 штиль 0 н/о ясно -33.6 -35.6 82 -34 -34 опасность
обморожения
1045.2 974.7
21 12.02 штиль 0 н/о ясно -36.7 -39.4 76 -37 -37 опасность
обморожения
1046.1 974.7
00 13.02 З 1
{2}
н/о 6/0
[Ci]
-33.8 -36.8 74 -38 -38 опасность
обморожения
1044.7 973.3 -37.3 41
03 13.02 В 1 50 км 9/0
[Cs]
-32.6 -34.8 81 -37 -35 опасность
обморожения
1044.3 973.3
06 13.02 штиль 0 50 км 9/0
[Cs]
-24.6 -27.2 79 -25 -21 1039.3 972.0
09 13.02 штиль 0 50 км 9/0
[Cc]
-19.6 -25.4 60 -20 -19 1037.4 970.7
12 13.02 ЮЗ 2
{3}
н/о 4/0
[Ci fib]
-23.4 -25.9 80 -30 -30 1039.9 972.0 -18.8
15 13.02 ЮЗ 2 н/о 8/0
[Ci fib]
-25.6 -28.1 80 -32 -32 опасность
обморожения
1041.6 973.3
18 13.02 штиль 0 н/о 3/0
[Ci fib]
-27.6 -30.0 80 -28 -28 1043.0 974.7
21 13.02 штиль 0 н/о 3/0
[Ci fib]
-30.1 -32.6 79 -30 -30 1043.5 973.3
00 14.02 штиль 0
{4}
20 км 3/0
[Ci fib]
-32.1 -34.4 80 -32 -32 опасность
обморожения
1045.6 974.7 -33.9 41
03 14.02 штиль 0 50 км 1/0
[Ac trans]
-30.9 -33.2 80 -31 -28 опасность
обморожения
1045.5 976.0 -34.3
06 14.02 штиль 0 50 км ясно -19.6 -24.5 65 -20 -16 1041.3 974.7
09 14.02 штиль 0 50 км 1/0
[Ci fib]
-17.3 -22.3 65 -17 -17 1040.1 974.7
12 14.02 ЮЗ 1
{2}
н/о 1/0
[Ci fib]
-24.1 -26.7 79 -28 -28 1042.5 974.7 -16.1
15 14.02 ЮЗ 1 н/о 3/0
[Cs]
-25.9 -27.8 84 -30 -30 1043.5 974.7
18 14.02 штиль 0 н/о ясно -30.7 -33.0 80 -31 -31 опасность
обморожения
1044.9 974.7
21 14.02 штиль 0 н/о 4/3 1000 м
[Sc Ci fib]
-29.7 -32.2 79 -30 -30 1044.6 974.7
00 15.02 штиль 0
{2}
20 км слаб. ливневой снег 10/8 600 м
[Cb cap Cs]
-25.3 -27.8 80 -25 -25 1044.1 976.0 -32.1 0.0 41
03 15.02 штиль 0 50 км {ливн. осадки} 9/4 600 м
[Cb cap Cs]
-25.1 -28.3 75 -25 -23 1044.1 976.0
06 15.02 штиль 0 50 км {ливн. осадки} 9/3 1000 м
[Sc Cs]
-19.1 -23.2 70 -19 -17 1041.0 974.7
09 15.02 штиль 0 50 км 9/0
[Cs]
-12.6 -16.9 70 -13 -12 1038.2 973.3
12 15.02 З 2
{4}
н/о 9/0
[Cs]
-19.4 -23.5 70 -25 -25 1040.4 973.3 -11.1 0.0
15 15.02 З 2 н/о 6/0
[Ci fib]
-22.1 -26.2 69 -28 -28 1041.4 974.7
18 15.02 З 2 н/о 6/0
[Ci fib]
-24.2 -27.4 75 -31 -31 опасность
обморожения
1042.0 974.7
21 15.02 З 3 н/о 9/6 1000 м
[Sc Cs]
-22.1 -25.4 75 -30 -30 1040.8 973.3
00 16.02 З 2
{4}
20 км 10/6 1000 м
[Sc Cs]
-19.2 -22.5 75 -25 -25 1037.8 972.0 -24.6 41
03 16.02 штиль 0 20 км 8/3 1000 м
[Sc Ac trans Cc]
-19.0 -20.9 85 -19 -17 1036.9 970.7
06 16.02 штиль 0 50 км 9/1 1000 м
[Sc Cs]
-11.8 -16.2 70 -12 -9 1032.9 968.0
09 16.02 штиль 0 50 км 9/0
[Ac trans Cs]
-10.5 -17.8 55 -11 -10 1030.4 966.7
12 16.02 ЮЗ 1
{4}
н/о 4/0
[Ci fib]
-15.3 -18.0 80 -18 -18 1030.8 965.3 -8.4
15 16.02 ЮЗ 1 н/о 3/0
[Ci fib]
-19.7 -21.6 85 -23 -23 1031.0 965.3
18 16.02 штиль 0 н/о 3/0
[Ci fib]
-22.8 -24.7 84 -23 -23 1030.5 964.0
21 16.02 ЮЗ 1 н/о 9/0
[Cs]
-22.7 -24.6 84 -26 -26 1028.4 961.3
00 17.02 ЮЗ 1
{4}
50 км 9/0
[Cs]
-25.1 -26.9 85 -29 -29 1028.2 961.3 -27.0 41
03 17.02 штиль 0 9 баллов 85 961.3
06 17.02 штиль 0 3 балла 75 958.7
09 17.02 ЮЗ 2 9 баллов 50 957.3
12 17.02 Ю 2
{4}
5 баллов 62 956.0
15 17.02 ЮЗ 3 9 баллов 70 956.0
18 17.02 ЮЗ 2 9 баллов 80 956.0
21 17.02 ЮЗ 2 ясно 85 956.0
00 18.02 ЮЗ 1
{5}
2 балла 85 956.0
03 18.02 штиль 0 ясно 75 956.0
06 18.02 В 1 ясно 60 954.7
09 18.02 штиль 0 ясно 44 953.3
12 18.02 ЮЗ 1
{4}
ясно 75 953.3
15 18.02 ЮЗ 1 ясно 85 954.7
18 18.02 Ю 1 ясно 85 954.7
21 18.02 штиль 0 ясно 85 954.7
00 19.02 ЮЗ 1 9 баллов 85 954.7
03 19.02 ЮЗ 1 9 баллов 80 957.3
06 19.02 штиль 0 9 баллов 75 957.3

 

Местоположение метеостанции Карам (Иркутская область, Россия): широта 55.15 долгота 107.60 высота над уровнем моря 496 м.

В архиве по умолчанию представлена погода в Караме за последнюю неделю. Архивные данные за месяц целиком и за предыдущие месяцы, начиная с января 2011 года, Вы можете получить, выбрав интересующий диапазон дат из раскрывающегося списка и нажав кнопку "Ввод!".


*Определитесь, кто Вы:
робот инопланетянин человек

Внимание! Время в таблицах - всемирное. Для получения местного времени необходимо прибавить поправку, которая равна 8 ч.

Смотрите также архив погоды в соседних городах и на ближайших метеорологических станциях:

Погода в Тырке (Иркутская область, Россия) (84 км)
Погода в Даване (Бурятия, Россия) (101 км)
Погода в Казачинске (Иркутская область, Россия) (130 км)
Погода в Солнечной (Иркутская область, Россия) (130 км)
Погода в Томпе (Бурятия, Россия) (134 км)
Погода в Нижнеангарске (Бурятия, Россия) (139 км)
Погода в Орлинге (Иркутская область, Россия) (151 км)
Погода в Баргузинском Заповеднике (Бурятия, Россия) (152 км)
Погода на Большом Ушканьем Острове (Бурятия, Россия) (156 км)
Погода в Жигалове (Иркутская область, Россия) (164 км)

Пояснения к столбцам:

Ветер - указаны скорость ветра в м/с - средняя за 10 мин, порывы в срок и между сроками (в фигурных скобках) и направление, откуда дует ветер: С - северный, СВ - северо-восточный, В - восточный, ЮВ - юго-восточный, Ю - южный, ЮЗ - юго-западный, З - западный, СЗ - северо-западный.
Видимость - горизонтальная дальность видимости в метрах или километрах. При видимости от 1 до 10 км при отсутствии осадков обычно наблюдается дымка, при ухудшении видимости до 1 км и менее - туман. В сухую погоду видимость может ухудшаться дымом, пылью или мглою.
Явления - указаны атмосферные явления, наблюдавшиеся в срок или в последний час перед сроком; фигурными скобками обозначены явления, наблюдавшиеся между сроками (за 1-3 часа до срока); квадратными скобками обозначены град или гололедные отложения с указанием их диаметра в мм.
Облачность - указаны через наклонную черту общая и нижняя облачность в баллах и высота нижней границы облаков в метрах; квадратными скобками обозначены формы облаков: Ci - перистые, Cs - перисто-слоистые, Cc - перисто-кучевые, Ac - высококучевые, As - высокослоистые, Sc - слоисто-кучевые, Ns - слоисто-дождевые, Cu - кучевые, Cb - кучево-дождевые. Подробнее классификацию облаков см. в Атласе облаков (PDF).
T - Температура воздуха - температура, измеренная на высоте 2 м над землей.
Td - Температура точки росы - температура, при понижении до которой содержащийся в воздухе водяной пар достигнет насыщения.
f - Относительная влажность воздуха - влажноcть воздуха, измеренная на высоте 2 м над землей.
Te - Эффективная температура - температура, которую ощущает одетый по сезону человек в тени. Характеристика душности погоды. При расчете учитывается влияние влажности воздуха и скорости ветра на теплоощущения человека.
Tes - Эффективная температура на солнце - температура, которую ощущает человек, с поправкой на солнечный нагрев. Характеристика знойности погоды. Зависит от высоты солнца над горизонтом, облачности и скорости ветра. Ночью, в пасмурную погоду, а также при ветре 12 м/с и более поправка равна нулю.
P - Атмосферное давление - приведенное к уровню моря атмосферное давление.
Po - Атмосферное давление - измеренное на уровне метеостанции атмосферное давление.
Tmin - Минимальная температура - минимум температуры воздуха на высоте 2 м над землей.
Tmax - Максимальная температура - максимум температуры воздуха на высоте 2 м над землей.
R - Количество осадков - Количество выпавших осадков за период времени, мм. При наведении курсора мыши на число - период времени, за который выпало указанное количество осадков.
R24 - Количество осадков - Количество выпавших осадков за 24 часа, мм.
S - Снежный покров - Высота снежного покрова, см. При наведении курсора мыши на число - состояние снежного покрова и степень покрытия местности в баллах.